FW6726 Weather Reports


time (UTC)temp
C
wind
direction
speed
KPH
gust
KPH
rain 1hr
cm
rain 24hr
cm
rain mn
cm
humidity
%
barometer
mb
20260506214433 22 94 8.0 14.5 0.00 0.00 0.00 54 1020.2
20260506213945 22 107 8.0 11.3 0.00 0.00 0.00 54 1020.3
20260506213211 22 97 4.8 9.7 0.00 0.00 0.00 55 1020.3
20260506212936 22 87 6.4 8.0 0.00 0.00 0.00 55 1020.3
20260506212211 22 97 4.8 14.5 0.00 0.00 0.00 55 1020.4
20260506211710 22 94 8.0 14.5 0.00 0.00 0.00 55 1020.5
20260506211209 22 121 3.2 8.0 0.00 0.00 0.00 55 1020.5
20260506210710 22 103 4.8 11.3 0.00 0.00 0.00 55 1020.6
20260506210210 22 93 8.0 11.3 0.00 0.00 0.00 56 1020.6
20260506205709 22 83 4.8 11.3 0.00 0.00 0.00 54 1020.6
20260506205209 22 83 6.4 16.1 0.00 0.00 0.00 56 1020.6
20260506204932 21 83 8.0 16.1 0.00 0.00 0.00 55 1020.5
20260506204208 22 103 6.4 11.3 0.00 0.00 0.00 55 1020.6
20260506203709 22 97 6.4 9.7 0.00 0.00 0.00 57 1020.6
20260506203209 22 99 6.4 9.7 0.00 0.00 0.00 57 1020.6
20260506202709 22 107 4.8 9.7 0.00 0.00 0.00 56 1020.6
20260506202208 21 107 1.6 9.7 0.00 0.00 0.00 59 1020.7
20260506201708 21 97 4.8 14.5 0.00 0.00 0.00 59 1020.8
20260506201209 21 103 4.8 14.5 0.00 0.00 0.00 58 1020.8
20260506200704 21 96 4.8 11.3 0.00 0.00 0.00 58 1020.8
20260506200204 21 127 4.8 14.5 0.00 0.00 0.00 61 1020.9
20260506195928 21 83 8.0 14.5 0.00 0.00 0.00 60 1020.9
20260506195202 21 103 6.4 11.3 0.00 0.00 0.00 60 1020.9
20260506194703 21 100 6.4 11.3 0.00 0.00 0.00 60 1020.9
20260506194425 21 117 4.8 11.3 0.00 0.00 0.00 60 1020.8
20260506193704 21 102 6.4 14.5 0.00 0.00 0.00 59 1020.9
20260506193203 21 96 4.8 14.5 0.00 0.00 0.00 61 1020.9
20260506192702 21 90 4.8 9.7 0.00 0.00 0.00 62 1020.9
20260506192202 21 99 3.2 11.3 0.00 0.00 0.00 60 1021.0
20260506191702 21 106 4.8 11.3 0.00 0.00 0.00 61 1020.8
20260506191202 21 106 4.8 9.7 0.00 0.00 0.00 60 1020.9
20260506190701 21 55 6.4 11.3 0.00 0.00 0.00 60 1021.0
20260506190202 21 106 6.4 14.5 0.00 0.00 0.00 59 1021.0
20260506185702 21 109 6.4 14.5 0.00 0.00 0.00 60 1021.0
20260506185202 21 104 4.8 14.5 0.00 0.00 0.00 60 1021.1
20260506184702 21 97 8.0 14.5 0.00 0.00 0.00 59 1021.1
20260506184202 21 93 6.4 14.5 0.00 0.00 0.00 60 1021.2
20260506183702 21 128 4.8 14.5 0.00 0.00 0.00 60 1021.2
20260506183202 21 97 3.2 14.5 0.00 0.00 0.00 61 1021.2
20260506182701 21 133 1.6 11.3 0.00 0.00 0.00 63 1021.3
20260506182431 21 83 6.4 16.1 0.00 0.00 0.00 63 1021.3
20260506181923 21 82 11.3 16.1 0.00 0.00 0.00 61 1021.3
20260506181431 21 83 6.4 14.5 0.00 0.00 0.00 64 1021.4
20260506180702 20 100 6.4 11.3 0.00 0.00 0.00 60 1021.3
20260506180202 21 109 4.8 9.7 0.00 0.00 0.00 61 1021.3
20260506175702 -17 0.0 6.4 0.00 0.00 0.00 1021.3
20260506175204 20 109 3.2 8.0 0.00 0.00 0.00 62 1021.3
20260506174702 20 121 3.2 14.5 0.00 0.00 0.00 62 1021.3
20260506174202 20 99 6.4 14.5 0.00 0.00 0.00 62 1021.2
20260506173921 20 114 4.8 14.5 0.00 0.00 0.00 62 1021.2
20260506173202 20 90 8.0 14.5 0.00 0.00 0.00 63 1021.2
20260506172701 20 100 8.0 16.1 0.00 0.00 0.00 63 1021.2
20260506172202 20 128 4.8 16.1 0.00 0.00 0.00 63 1021.1
20260506171701 20 94 6.4 16.1 0.00 0.00 0.00 63 1021.1
20260506171200 20 94 6.4 16.1 0.00 0.00 0.00 63 1021.1
20260506170926 20 113 3.2 16.1 0.00 0.00 0.00 64 1021.0
20260506170202 20 125 3.2 8.0 0.00 0.00 0.00 66 1021.1
20260506165702 20 90 4.8 9.7 0.00 0.00 0.00 66 1021.0
20260506165202 19 103 4.8 11.3 0.00 0.00 0.00 67 1021.0
20260506164701 19 102 6.4 11.3 0.00 0.00 0.00 67 1021.0
20260506164202 19 113 1.6 6.4 0.00 0.00 0.00 67 1021.0
20260506163702 18 110 3.2 6.4 0.00 0.00 0.00 69 1020.9
20260506163422 18 114 3.2 6.4 0.00 0.00 0.00 69 1020.9
20260506162700 18 109 1.6 6.4 0.00 0.00 0.00 70 1020.8
20260506162200 18 100 3.2 6.4 0.00 0.00 0.00 70 1020.8
20260506161700 18 117 3.2 4.8 0.00 0.00 0.00 71 1020.9
20260506161159 17 118 3.2 6.4 0.00 0.00 0.00 71 1020.9
20260506160921 17 127 3.2 6.4 0.00 0.00 0.00 71 1020.9
20260506160159 17 103 1.6 8.0 0.00 0.00 0.00 71 1020.8
20260506155659 17 102 4.8 9.7 0.00 0.00 0.00 72 1020.8
20260506155159 17 102 4.8 9.7 0.00 0.00 0.00 72 1020.9
20260506154658 17 100 4.8 9.7 0.00 0.00 0.00 73 1020.8
20260506154159 17 107 3.2 4.8 0.00 0.00 0.00 74 1020.7
20260506153700 17 109 1.6 4.8 0.00 0.00 0.00 76 1020.7
20260506153201 16 110 1.6 4.8 0.00 0.00 0.00 78 1020.6
20260506152700 16 100 0.0 3.2 0.00 0.00 0.00 79 1020.7
20260506152201 16 56 0.0 3.2 0.00 0.00 0.00 80 1020.6
20260506151659 15 306 0.0 0.0 0.00 0.00 0.00 81 1020.5
20260506151200 15 300 0.0 0.0 0.00 0.00 0.00 82 1020.6
20260506150659 15 298 0.0 0.0 0.00 0.00 0.00 83 1020.6
20260506150156 14 298 0.0 0.0 0.00 0.00 0.00 84 1020.6
20260506145700 14 298 0.0 0.0 0.00 0.00 0.00 84 1020.5
20260506145200 13 298 0.0 0.0 0.00 0.00 0.00 85 1020.5
20260506144658 13 298 0.0 0.0 0.00 0.00 0.00 85 1020.4
20260506144158 13 298 0.0 0.0 0.00 0.00 0.00 86 1020.3
20260506143657 13 298 0.0 0.0 0.00 0.00 0.00 86 1020.3
20260506143158 12 298 0.0 0.0 0.00 0.00 0.00 86 1020.3
20260506142657 12 298 0.0 0.0 0.00 0.00 0.00 86 1020.2
20260506142158 12 298 0.0 0.0 0.00 0.00 0.00 86 1020.2
20260506141657 12 298 0.0 1.6 0.00 0.00 0.00 86 1020.1
20260506141158 12 298 0.0 3.2 0.00 0.00 0.00 86 1020.0
20260506140656 12 298 0.0 3.2 0.00 0.00 0.00 85 1020.0
20260506140157 12 298 1.6 3.2 0.00 0.00 0.00 85 1019.9
20260506135657 12 298 0.0 3.2 0.00 0.00 0.00 85 1019.9
20260506135157 12 298 1.6 1.6 0.00 0.00 0.00 86 1019.8
20260506134656 11 298 0.0 0.0 0.00 0.00 0.00 86 1019.8
20260506134416 11 298 0.0 1.6 0.00 0.00 0.00 86 1019.8
20260506133656 11 298 0.0 1.6 0.00 0.00 0.00 86 1019.7
20260506133638 11 298 0.0 1.6 0.00 0.00 0.00 86 1019.6
20260506132656 11 298 0.0 3.2 0.00 0.00 0.00 87 1019.5
20260506132157 11 298 0.0 3.2 0.00 0.00 0.00 87 1019.6
20260506131655 11 298 1.6 3.2 0.00 0.00 0.00 87 1019.6
20260506131633 11 298 0.0 1.6 0.00 0.00 0.00 87 1019.5
20260506130917 11 298 0.0 3.2 0.00 0.00 0.00 87 1019.5
20260506130156 11 298 0.0 3.2 0.00 0.00 0.00 87 1019.5
20260506125654 11 298 0.0 0.0 0.00 0.00 0.00 87 1019.4
20260506125156 11 298 0.0 0.0 0.00 0.00 0.00 87 1019.3
20260506124655 11 298 0.0 0.0 0.00 0.00 0.00 87 1019.3
20260506124157 11 298 0.0 0.0 0.00 0.00 0.00 87 1019.3
20260506123656 11 298 0.0 1.6 0.00 0.00 0.00 87 1019.3
20260506123156 12 298 0.0 1.6 0.00 0.00 0.00 87 1019.3
20260506123142 12 298 0.0 1.6 0.00 0.00 0.00 86 1019.3
20260506122156 12 298 0.0 1.6 0.00 0.00 0.00 86 1019.3
20260506121654 12 298 0.0 1.6 0.00 0.00 0.00 86 1019.2
20260506121419 12 298 0.0 3.2 0.00 0.00 0.00 85 1019.3
20260506120654 12 298 0.0 3.2 0.00 0.00 0.00 84 1019.2
20260506120154 12 296 0.0 4.8 0.00 0.00 0.00 84 1019.2
20260506115655 12 296 0.0 4.8 0.00 0.00 0.00 84 1019.4
20260506115155 12 296 3.2 4.8 0.00 0.00 0.00 84 1019.4
20260506114654 12 296 3.2 3.2 0.00 0.00 0.00 84 1019.4
20260506114155 12 296 0.0 3.2 0.00 0.00 0.00 84 1019.3
20260506113654 12 296 0.0 6.4 0.00 0.00 0.00 84 1019.2
20260506113153 12 295 1.6 6.4 0.00 0.00 0.00 84 1019.3
20260506112653 12 295 4.8 8.0 0.00 0.00 0.00 84 1019.2
20260506112153 12 295 4.8 8.0 0.00 0.00 0.00 84 1019.3
20260506111653 12 302 6.4 8.0 0.00 0.00 0.00 83 1019.4
20260506111153 12 303 3.2 4.8 0.00 0.00 0.00 84 1019.3
20260506110652 12 305 3.2 4.8 0.00 0.00 0.00 83 1019.2
20260506110152 12 305 3.2 6.4 0.00 0.00 0.00 83 1019.2
20260506105652 12 305 3.2 8.0 0.00 0.00 0.00 83 1019.1
20260506105639 12 305 4.8 8.0 0.00 0.00 0.00 82 1019.2
20260506104652 12 305 6.4 8.0 0.00 0.00 0.00 82 1019.2
20260506104416 12 303 6.4 8.0 0.00 0.00 0.00 82 1019.2
20260506103652 12 32 3.2 3.2 0.00 0.00 0.00 83 1019.2
20260506103421 12 32 1.6 3.2 0.00 0.00 0.00 83 1019.1
20260506102654 12 32 0.0 4.8 0.00 0.00 0.00 82 1019.0
20260506102153 12 32 1.6 4.8 0.00 0.00 0.00 82 1019.0
20260506101654 12 32 3.2 4.8 0.00 0.00 0.00 82 1019.0
20260506101411 12 32 3.2 4.8 0.00 0.00 0.00 82 1018.9
20260506100920 12 32 3.2 4.8 0.00 0.00 0.00 82 1019.0
20260506100152 12 32 3.2 3.2 0.00 0.00 0.00 81 1018.9
20260506095653 12 32 1.6 3.2 0.00 0.00 0.00 81 1019.0
20260506095152 12 32 0.0 3.2 0.00 0.00 0.00 81 1019.0
20260506094653 12 34 1.6 4.8 0.00 0.00 0.00 81 1018.9
20260506094151 12 32 0.0 4.8 0.00 0.00 0.00 80 1018.9
20260506093652 12 32 3.2 4.8 0.00 0.00 0.00 80 1019.1
20260506093152 13 34 3.2 3.2 0.00 0.00 0.00 80 1019.1
20260506092652 13 34 0.0 3.2 0.00 0.00 0.00 79 1019.0
20260506092152 13 34 1.6 3.2 0.00 0.00 0.00 79 1019.1
20260506091653 13 34 0.0 1.6 0.00 0.00 0.00 79 1019.1
20260506091634 13 34 0.0 3.2 0.00 0.00 0.00 79 1019.1
20260506090908 13 34 1.6 4.8 0.00 0.00 0.00 78 1019.1
20260506090149 13 34 3.2 6.4 0.00 0.00 0.00 78 1019.2
20260506085651 13 34 1.6 8.0 0.00 0.00 0.00 78 1019.2
20260506085150 13 34 6.4 8.0 0.00 0.00 0.00 77 1019.2
20260506084650 13 39 0.0 4.8 0.00 0.00 0.00 77 1019.2
20260506084149 13 38 3.2 6.4 0.00 0.00 0.00 77 1019.2
20260506083650 13 39 4.8 6.4 0.00 0.00 0.00 77 1019.2
20260506083149 13 39 4.8 6.4 0.00 0.00 0.00 78 1019.2
20260506082650 13 37 6.4 6.4 0.00 0.00 0.00 78 1019.2
20260506082148 13 295 0.0 6.4 0.00 0.00 0.00 78 1019.2
20260506081650 13 295 3.2 6.4 0.00 0.00 0.00 79 1019.2
20260506081148 13 295 3.2 6.4 0.00 0.00 0.00 79 1019.2
20260506080916 13 295 3.2 11.3 0.00 0.00 0.00 80 1019.2
20260506080148 13 295 4.8 11.3 0.00 0.00 0.00 80 1019.2
20260506073148 12 272 11.3 14.5 0.00 0.00 0.00 79 1019.1
20260506072649 12 251 9.7 14.5 0.00 0.00 0.00 79 1019.0
20260506072147 13 274 9.7 11.3 0.00 0.00 0.00 77 1019.0
20260506071649 13 276 6.4 8.0 0.00 0.00 0.00 76 1019.0
20260506071147 13 278 6.4 8.0 0.00 0.00 0.00 75 1019.0
20260506070906 13 223 6.4 8.0 0.00 0.00 0.00 74 1018.9
20260506070408 14 221 3.2 6.4 0.00 0.00 0.00 73 1018.8
20260506062147 15 10 0.0 6.4 0.00 0.00 0.00 70 1018.4
20260506061648 15 10 3.2 6.4 0.00 0.00 0.00 70 1018.2
20260506061146 15 0 3.2 4.8 0.00 0.00 0.00 70 1018.2
20260506060911 15 0 0.0 4.8 0.00 0.00 0.00 70 1018.3
20260506060147 15 0 1.6 6.4 0.00 0.00 0.00 70 1018.3
20260506051144 16 93 6.4 9.7 0.00 0.00 0.00 68 1017.9
20260506050646 16 307 3.2 6.4 0.00 0.00 0.00 68 1017.9
20260506050144 16 302 3.2 8.0 0.00 0.00 0.00 68 1017.8
20260506044644 16 305 1.6 8.0 0.00 0.00 0.00 68 1017.6
20260506044405 16 303 4.8 9.7 0.00 0.00 0.00 69 1017.5
20260506043643 16 300 0.0 14.5 0.00 0.00 0.00 68 1017.5
20260506043144 16 292 9.7 17.7 0.00 0.00 0.00 70 1017.5
20260506042909 16 290 11.3 17.7 0.00 0.00 0.00 70 1017.4
20260506042143 15 274 12.9 19.3 0.00 0.00 0.00 70 1017.3
20260506041643 15 296 14.5 19.3 0.00 0.00 0.00 71 1017.4
20260506041405 15 271 12.9 20.9 0.00 0.00 0.00 71 1017.2
20260506040642 15 286 12.9 22.5 0.00 0.00 0.00 71 1017.2
20260506040141 15 261 16.1 25.7 0.00 0.00 0.00 71 1017.2
20260506035636 15 259 16.1 25.7 0.00 0.00 0.00 70 1017.2
20260506035134 15 289 14.5 22.5 0.00 0.00 0.00 70 1017.1
20260506034635 15 252 16.1 22.5 0.00 0.00 0.00 69 1017.0
20260506034133 15 276 12.9 17.7 0.00 0.00 0.00 69 1016.9
20260506033633 16 283 12.9 22.5 0.00 0.00 0.00 68 1016.8
20260506033134 16 275 16.1 24.1 0.00 0.00 0.00 68 1016.7
20260506032632 16 278 14.5 27.4 0.00 0.00 0.00 68 1016.6
20260506032132 16 276 14.5 27.4 0.00 0.00 0.00 67 1016.5
20260506031633 16 269 20.9 27.4 0.00 0.00 0.00 67 1016.3
20260506031131 16 269 17.7 27.4 0.00 0.00 0.00 66 1016.4
20260506030854 16 299 11.3 22.5 0.00 0.00 0.00 66 1016.3
20260506030131 16 279 16.1 20.9 0.00 0.00 0.00 67 1016.3
20260506025854 16 275 14.5 27.4 0.00 0.00 0.00 67 1016.3
20260506025131 16 293 14.5 30.6 0.00 0.00 0.00 67 1016.3
20260506024631 16 279 22.5 30.6 0.00 0.00 0.00 66 1016.3
20260506024131 16 266 17.7 33.8 0.00 0.00 0.00 66 1016.3
20260506023632 16 252 22.5 33.8 0.00 0.00 0.00 65 1016.1
20260506023131 16 271 20.9 30.6 0.00 0.00 0.00 65 1016.0
20260506022631 17 258 20.9 29.0 0.00 0.00 0.00 64 1016.1
20260506022351 17 269 22.5 33.8 0.00 0.00 0.00 64 1016.0
20260506021631 17 261 25.7 33.8 0.00 0.00 0.00 63 1016.0
20260506021131 17 257 20.9 30.6 0.00 0.00 0.00 63 1016.0
20260506020631 18 247 22.5 29.0 0.00 0.00 0.00 62 1016.1
20260506020131 18 261 19.3 32.2 0.00 0.00 0.00 62 1016.1
20260506015631 18 245 24.1 32.2 0.00 0.00 0.00 61 1016.0
20260506015132 18 257 20.9 29.0 0.00 0.00 0.00 61 1015.9
20260506014633 18 248 17.7 29.0 0.00 0.00 0.00 60 1015.8
20260506014108 18 254 16.1 27.4 0.00 0.00 0.00 61 1015.9
20260506013608 18 265 17.7 35.4 0.00 0.00 0.00 60 1015.8
20260506013321 18 272 19.3 35.4 0.00 0.00 0.00 60 1015.7
20260506012822 18 269 25.7 35.4 0.00 0.00 0.00 60 1015.7
20260506012104 18 264 16.1 32.2 0.00 0.00 0.00 59 1015.7
20260506011603 18 286 19.3 32.2 0.00 0.00 0.00 58 1015.7
20260506011102 19 251 20.9 32.2 0.00 0.00 0.00 58 1015.7
20260506010604 19 275 14.5 25.7 0.00 0.00 0.00 57 1015.7
20260506005603 20 226 17.7 27.4 0.00 0.00 0.00 56 1015.7
20260506005102 20 245 12.9 30.6 0.00 0.00 0.00 56 1015.8
20260506004829 20 278 17.7 30.6 0.00 0.00 0.00 55 1015.7
20260506004102 20 286 17.7 27.4 0.00 0.00 0.00 55 1015.7
20260506003833 20 255 14.5 24.1 0.00 0.00 0.00 55 1015.7
20260506003102 20 274 16.1 24.1 0.00 0.00 0.00 56 1015.7
20260506002602 20 271 14.5 29.0 0.00 0.00 0.00 56 1015.7
20260506002101 19 234 17.7 29.0 0.00 0.00 0.00 57 1015.6
20260506001550 19 244 19.3 25.7 0.00 0.00 0.00 57 1015.7
20260506001051 18 217 14.5 25.7 0.00 0.00 0.00 58 1015.7
20260506000811 18 245 16.1 25.7 0.00 0.00 0.00 57 1015.5
20260506000041 18 241 14.5 30.6 0.00 0.00 0.00 57 1015.4
20260505235540 19 259 20.9 33.8 0.00 0.00 0.00 56 1015.4
20260505235038 19 254 17.7 33.8 0.00 0.00 0.00 55 1015.3
20260505234539 20 251 14.5 32.2 0.00 0.00 0.00 54 1015.3
20260505234038 20 252 19.3 32.2 0.00 0.00 0.00 54 1015.2
20260505233537 20 244 11.3 35.4 0.00 0.00 0.00 56 1015.4
20260505233303 20 234 20.9 35.4 0.00 0.00 0.00 53 1015.3
20260505232537 20 261 20.9 38.6 0.00 0.00 0.00 54 1015.4
20260505232036 20 227 19.3 45.1 0.00 0.00 0.00 53 1015.4
20260505231536 20 235 24.1 45.1 0.00 0.00 0.00 54 1015.4
20260505231256 21 228 22.5 45.1 0.00 0.00 0.00 54 1015.3
20260505230536 20 231 17.7 45.1 0.00 0.00 0.00 56 1015.5
20260505230036 20 219 22.5 33.8 0.00 0.00 0.00 56 1015.4
20260505225757 19 224 19.3 30.6 0.00 0.00 0.00 57 1015.7
20260505225257 18 238 16.1 37.0 0.00 0.00 0.00 59 1015.7
20260505224536 18 224 17.7 37.0 0.00 0.00 0.00 59 1015.8
20260505224256 18 247 27.4 33.8 0.00 0.00 0.00 58 1015.9
20260505223535 18 223 24.1 33.8 0.00 0.00 0.00 57 1015.9
20260505223257 19 233 19.3 46.7 0.00 0.00 0.00 57 1015.9
20260505222801 20 252 17.7 46.7 0.00 0.00 0.00 55 1016.0
20260505222301 20 212 19.3 33.8 0.00 0.00 0.00 54 1016.0
20260505221535 20 196 22.5 30.6 0.00 0.00 0.00 55 1016.1
20260505221032 20 200 14.5 30.6 0.00 0.00 0.00 57 1016.2
20260505220532 19 274 22.5 32.2 0.00 0.00 0.00 58 1016.2
20260505220513 19 261 24.1 32.2 0.00 0.00 0.00 57 1016.3
20260505215525 19 220 20.9 35.4 0.00 0.00 0.00 57 1016.3
20260505215017 19 255 20.9 38.6 0.00 0.00 0.00 57 1016.3
20260505214518 20 241 22.5 38.6 0.00 0.00 0.00 54 1016.3